CW9825 Weather Reports


time (UTC)temp
C
wind
direction
speed
KPH
gust
KPH
rain 1hr
cm
rain 24hr
cm
rain mn
cm
humidity
%
barometer
mb
20260906201024 27 138 11.3 24.1 0.00 0.00 0.00 83 1014.3
20260906200526 27 198 11.3 29.0 0.00 0.00 0.00 82 1014.2
20260906200024 27 139 9.7 27.4 0.00 0.00 0.00 82 1014.3
20260906195523 27 179 12.9 27.4 0.00 0.00 0.00 82 1014.2
20260906195024 27 146 11.3 22.5 0.00 0.00 0.00 82 1014.2
20260906194524 27 131 9.7 24.1 0.00 0.00 0.00 82 1014.1
20260906194023 27 182 11.3 22.5 0.00 0.00 0.00 81 1014.0
20260906193525 27 182 9.7 22.5 0.00 0.00 0.00 81 1013.9
20260906193025 27 169 12.9 30.6 0.00 0.00 0.00 80 1014.0
20260906192521 27 175 9.7 30.6 0.00 0.00 0.00 80 1014.2
20260906192022 28 154 12.9 24.1 0.00 0.00 0.00 79 1014.3
20260906191522 28 193 9.7 27.4 0.00 0.00 0.00 79 1014.2
20260906191021 28 202 12.9 27.4 0.00 0.00 0.00 78 1014.3
20260906190523 28 138 12.9 25.7 0.00 0.00 0.00 78 1014.2
20260906190021 28 194 14.5 25.7 0.00 0.00 0.00 77 1014.3
20260906185521 29 192 11.3 25.7 0.00 0.00 0.00 77 1014.2
20260906185024 29 165 12.9 32.2 0.00 0.00 0.00 75 1014.4
20260906184522 30 194 8.0 32.2 0.00 0.00 0.00 75 1014.4
20260906184026 30 169 14.5 29.0 0.00 0.00 0.00 75 1014.4
20260906183519 30 155 9.7 29.0 0.00 0.00 0.00 75 1014.2
20260906183020 29 213 9.7 25.7 0.00 0.00 0.00 75 1014.3
20260906182518 30 171 11.3 24.1 0.00 0.00 0.00 75 1014.2
20260906182017 29 101 8.0 25.7 0.00 0.00 0.00 77 1014.2
20260906181517 29 146 14.5 25.7 0.00 0.00 0.00 76 1014.2
20260906181015 29 186 11.3 24.1 0.00 0.00 0.00 77 1014.3
20260906180516 28 140 11.3 24.1 0.00 0.00 0.00 78 1014.2
20260906180014 28 167 14.5 24.1 0.00 0.00 0.00 78 1014.3
20260906175512 28 150 9.7 25.7 0.00 0.00 0.00 79 1014.3
20260906175010 28 148 6.4 24.1 0.00 0.00 0.00 80 1014.4
20260906174511 28 130 9.7 24.1 0.00 0.00 0.00 79 1014.3
20260906174112 28 149 8.0 22.5 0.00 0.00 0.00 80 1014.4
20260906173507 27 171 8.0 20.9 0.00 0.00 0.00 81 1014.5
20260906173007 27 128 6.4 19.3 0.00 0.00 0.00 80 1014.6
20260906172507 27 159 11.3 22.5 0.00 0.00 0.00 80 1014.8
20260906172005 27 202 6.4 22.5 0.00 0.00 0.00 80 1014.9
20260906171506 27 157 11.3 19.3 0.00 0.00 0.00 80 1015.0
20260906171005 27 136 8.0 19.3 0.00 0.00 0.00 80 1015.0
20260906170507 27 157 6.4 19.3 0.00 0.00 0.00 80 1015.0
20260906170005 27 131 8.0 24.1 0.00 0.00 0.00 79 1015.2
20260906165505 27 152 11.3 24.1 0.00 0.00 0.00 78 1015.3
20260906165008 28 180 9.7 17.7 0.00 0.00 0.00 79 1015.3
20260906164503 27 173 9.7 19.3 0.00 0.00 0.00 79 1015.5
20260906164002 27 144 11.3 19.3 0.00 0.00 0.00 79 1015.5
20260906163502 27 167 8.0 20.9 0.00 0.00 0.00 80 1015.5
20260906163001 27 162 8.0 20.9 0.00 0.00 0.00 80 1015.6
20260906162600 27 130 9.7 22.5 0.00 0.00 0.00 80 1015.5
20260906162059 27 161 11.3 22.5 0.00 0.00 0.00 81 1015.5
20260906161600 27 42 9.7 25.7 0.00 0.00 0.00 82 1015.5
20260906161058 27 144 12.9 25.7 0.00 0.00 0.00 81 1015.5
20260906160559 27 171 11.3 24.1 0.00 0.00 0.00 81 1015.5
20260906160059 27 161 6.4 19.3 0.00 0.00 0.00 81 1015.4
20260906155558 27 98 11.3 19.3 0.00 0.00 0.00 80 1015.5
20260906155057 27 199 6.4 19.3 0.00 0.00 0.00 82 1015.5
20260906154557 27 73 8.0 19.3 0.00 0.00 0.00 82 1015.5
20260906154056 26 118 8.0 19.3 0.00 0.00 0.00 82 1015.4
20260906153556 26 139 6.4 22.5 0.00 0.00 0.00 83 1015.5
20260906153112 26 101 6.4 22.5 0.00 0.00 0.00 83 1015.5
20260906152552 26 261 4.8 17.7 0.00 0.00 0.00 84 1015.4
20260906152051 25 119 6.4 19.3 0.00 0.00 0.00 86 1015.6
20260906151559 25 92 6.4 19.3 0.00 0.00 0.00 86 1015.5
20260906151049 25 98 4.8 17.7 0.00 0.00 0.00 86 1015.5
20260906150548 25 168 8.0 17.7 0.00 0.00 0.00 86 1015.6
20260906150048 25 69 6.4 17.7 0.00 0.00 0.00 87 1015.6
20260906145546 24 82 3.2 17.7 0.00 0.00 0.00 88 1015.6
20260906145045 24 132 9.7 19.3 0.00 0.00 0.00 88 1015.6
20260906144545 24 148 6.4 14.5 0.00 0.00 0.00 88 1015.6
20260906144043 23 148 6.4 20.9 0.00 0.00 0.00 88 1015.6
20260906143541 23 133 8.0 19.3 0.00 0.00 0.00 88 1015.8
20260906143046 23 132 6.4 17.7 0.00 0.00 0.00 89 1015.9
20260906142539 23 130 8.0 17.7 0.00 0.00 0.00 89 1015.8
20260906142038 23 153 4.8 17.7 0.00 0.00 0.00 89 1015.9
20260906141538 23 146 8.0 17.7 0.00 0.00 0.00 89 1015.8
20260906141034 23 149 3.2 14.5 0.00 0.00 0.00 89 1015.8
20260906140535 23 140 6.4 16.1 0.00 0.00 0.00 89 1016.0
20260906140035 23 124 3.2 16.1 0.00 0.00 0.00 89 1016.0
20260906135533 23 98 4.8 14.5 0.00 0.00 0.00 89 1016.0
20260906135031 23 103 4.8 12.9 0.00 0.00 0.00 89 1016.0
20260906134529 23 63 4.8 12.9 0.00 0.00 0.00 90 1016.1
20260906134028 23 119 4.8 12.9 0.00 0.00 0.00 90 1016.1
20260906133530 23 129 4.8 19.3 0.00 0.00 0.00 91 1016.1
20260906133028 23 184 3.2 19.3 0.00 0.00 0.00 91 1016.1
20260906132524 22 167 4.8 14.5 0.00 0.00 0.00 91 1016.0
20260906132024 22 150 6.4 17.7 0.00 0.00 0.00 92 1016.1
20260906131524 22 160 6.4 17.7 0.00 0.00 0.00 92 1016.0
20260906131020 22 144 3.2 14.5 0.00 0.00 0.00 92 1016.0
20260906130519 22 142 4.8 12.9 0.00 0.00 0.00 92 1016.0
20260906130018 22 150 4.8 11.3 0.00 0.00 0.00 93 1016.0
20260906125518 21 165 1.6 9.7 0.00 0.00 0.00 93 1015.8
20260906125020 21 141 3.2 11.3 0.00 0.00 0.00 93 1015.7
20260906124515 21 144 4.8 11.3 0.00 0.00 0.00 93 1015.7
20260906124016 21 146 3.2 16.1 0.00 0.00 0.00 93 1015.5
20260906123514 21 154 8.0 16.1 0.00 0.00 0.00 93 1015.6
20260906123029 21 180 1.6 12.9 0.00 0.00 0.00 93 1015.5
20260906122514 21 90 3.2 9.7 0.00 0.00 0.00 93 1015.5
20260906122013 21 118 1.6 9.7 0.00 0.00 0.00 93 1015.6
20260906121514 21 101 3.2 6.4 0.00 0.00 0.00 93 1015.6
20260906121012 21 98 1.6 6.4 0.00 0.00 0.00 93 1015.6
20260906120513 21 119 1.6 11.3 0.00 0.00 0.00 93 1015.6
20260906120011 21 138 3.2 11.3 0.00 0.00 0.00 93 1015.6
20260906115514 21 166 4.8 11.3 0.00 0.00 0.00 93 1015.6
20260906115012 21 128 1.6 11.3 0.00 0.00 0.00 93 1015.7
20260906114509 21 155 3.2 8.0 0.00 0.00 0.00 93 1015.7
20260906114009 21 140 1.6 9.7 0.00 0.00 0.00 93 1015.8
20260906113509 21 118 3.2 8.0 0.00 0.00 0.00 93 1015.6
20260906113009 21 154 1.6 9.7 0.00 0.00 0.00 92 1015.6
20260906112509 21 155 1.6 9.7 0.00 0.00 0.00 92 1015.5
20260906112009 21 150 3.2 8.0 0.00 0.00 0.00 92 1015.4
20260906111507 21 148 3.2 11.3 0.00 0.00 0.00 92 1015.4
20260906111008 21 134 6.4 14.5 0.00 0.00 0.00 92 1015.6
20260906110508 21 130 4.8 14.5 0.00 0.00 0.00 92 1015.7
20260906110006 21 149 3.2 12.9 0.00 0.00 0.00 92 1015.6
20260906105507 21 148 4.8 12.9 0.00 0.00 0.00 92 1015.5
20260906105007 21 152 4.8 14.5 0.00 0.00 0.00 92 1015.5
20260906104505 21 140 4.8 14.5 0.00 0.00 0.00 92 1015.4
20260906104006 21 134 4.8 14.5 0.00 0.00 0.00 92 1015.4
20260906103505 21 134 3.2 11.3 0.00 0.00 0.00 92 1015.3
20260906103005 21 148 3.2 11.3 0.00 0.00 0.00 92 1015.3
20260906102505 21 144 4.8 11.3 0.00 0.00 0.00 92 1015.3
20260906102005 21 147 4.8 11.3 0.00 0.00 0.00 92 1015.4
20260906101512 21 142 3.2 9.7 0.00 0.00 0.00 92 1015.3
20260906101005 21 139 1.6 8.0 0.00 0.00 0.00 92 1015.4
20260906100508 21 162 0.0 4.8 0.00 0.00 0.00 92 1015.4
20260906100005 21 148 0.0 8.0 0.00 0.00 0.00 92 1015.4
20260906095504 21 148 1.6 6.4 0.00 0.00 0.00 92 1015.2
20260906095004 21 144 1.6 8.0 0.00 0.00 0.00 92 1015.2
20260906094503 21 148 1.6 8.0 0.00 0.00 0.00 92 1015.3
20260906094002 21 101 1.6 4.8 0.00 0.00 0.00 92 1015.3
20260906093506 21 94 1.6 4.8 0.00 0.00 0.00 92 1015.4
20260906093002 21 107 1.6 6.4 0.00 0.00 0.00 92 1015.3
20260906092503 21 107 0.0 6.4 0.00 0.00 0.00 92 1015.3
20260906092002 21 109 1.6 6.4 0.00 0.00 0.00 92 1015.3
20260906091502 21 60 1.6 4.8 0.00 0.00 0.00 92 1015.3
20260906091002 21 82 1.6 9.7 0.00 0.00 0.00 92 1015.5
20260906090501 21 82 3.2 9.7 0.00 0.00 0.00 92 1015.5
20260906090003 21 111 3.2 6.4 0.00 0.00 0.00 92 1015.4
20260906085502 21 94 3.2 6.4 0.00 0.00 0.00 91 1015.4
20260906085100 21 64 1.6 4.8 0.00 0.00 0.00 91 1015.4
20260906084605 21 76 1.6 4.8 0.00 0.00 0.00 90 1015.4
20260906084057 21 51 1.6 4.8 0.00 0.00 0.00 90 1015.3
20260906083557 21 150 0.0 8.0 0.00 0.00 0.00 90 1015.2
20260906083057 21 150 1.6 8.0 0.00 0.00 0.00 89 1015.1
20260906082556 21 115 1.6 6.4 0.00 0.00 0.00 89 1015.1
20260906082056 21 113 1.6 6.4 0.00 0.00 0.00 89 1015.1
20260906081558 21 149 1.6 6.4 0.00 0.00 0.00 89 1015.1
20260906081055 21 53 1.6 6.4 0.00 0.00 0.00 89 1015.1
20260906080555 22 138 1.6 4.8 0.00 0.00 0.00 89 1015.0
20260906080112 22 152 1.6 11.3 0.00 0.00 0.00 88 1015.1
20260906075554 22 149 4.8 11.3 0.00 0.00 0.00 88 1015.0
20260906075054 22 153 1.6 8.0 0.00 0.00 0.00 88 1015.0
20260906074606 22 135 1.6 6.4 0.00 0.00 0.00 88 1014.9
20260906074053 22 128 3.2 9.7 0.00 0.00 0.00 88 1014.9
20260906073552 22 154 1.6 11.3 0.00 0.00 0.00 87 1015.0
20260906073105 22 148 3.2 11.3 0.00 0.00 0.00 87 1015.0
20260906072551 22 143 1.6 11.3 0.00 0.00 0.00 87 1015.1
20260906072049 22 161 3.2 11.3 0.00 0.00 0.00 87 1015.1
20260906071549 22 173 3.2 11.3 0.00 0.00 0.00 87 1015.1
20260906071049 22 143 3.2 9.7 0.00 0.00 0.00 86 1015.2
20260906070549 22 153 3.2 11.3 0.00 0.00 0.00 86 1015.2
20260906070049 22 161 4.8 14.5 0.00 0.00 0.00 86 1015.1
20260906065548 22 185 6.4 14.5 0.00 0.00 0.00 86 1015.0
20260906065047 22 150 3.2 14.5 0.00 0.00 0.00 86 1014.9
20260906064547 23 181 4.8 14.5 0.00 0.00 0.00 86 1015.0
20260906064046 23 122 6.4 16.1 0.00 0.00 0.00 86 1015.1
20260906063545 23 151 6.4 16.1 0.00 0.00 0.00 85 1015.1
20260906063049 23 155 3.2 19.3 0.00 0.00 0.00 85 1015.1
20260906062545 23 154 4.8 16.1 0.00 0.00 0.00 85 1015.2
20260906062045 23 166 4.8 16.1 0.00 0.00 0.00 85 1015.1
20260906061545 23 185 4.8 12.9 0.00 0.00 0.00 86 1015.1
20260906061047 23 159 4.8 14.5 0.00 0.00 0.00 86 1015.1
20260906060544 23 127 6.4 14.5 0.00 0.00 0.00 86 1015.1
20260906060043 23 95 4.8 14.5 0.00 0.00 0.00 86 1015.0
20260906055543 23 150 3.2 14.5 0.00 0.00 0.00 86 1015.1
20260906055044 23 138 4.8 16.1 0.00 0.00 0.00 86 1015.3
20260906054544 23 94 3.2 16.1 0.00 0.00 0.00 86 1015.2
20260906054042 23 95 3.2 14.5 0.00 0.00 0.00 87 1015.1
20260906053541 22 117 6.4 14.5 0.00 0.00 0.00 87 1015.1
20260906053041 22 93 4.8 11.3 0.00 0.00 0.00 87 1015.1
20260906052541 22 82 4.8 12.9 0.00 0.00 0.00 87 1015.1
20260906052040 22 120 4.8 12.9 0.00 0.00 0.00 87 1015.2
20260906051553 23 104 3.2 9.7 0.00 0.00 0.00 87 1015.3
20260906051038 23 85 3.2 11.3 0.00 0.00 0.00 87 1015.4
20260906050537 23 60 4.8 12.9 0.00 0.00 0.00 87 1015.3
20260906050041 23 146 3.2 12.9 0.00 0.00 0.00 86 1015.4
20260906045537 23 96 3.2 11.3 0.00 0.00 0.00 86 1015.5
20260906045036 23 115 1.6 12.9 0.00 0.00 0.00 86 1015.5
20260906044544 23 116 4.8 12.9 0.00 0.00 0.00 86 1015.4
20260906044037 23 82 3.2 11.3 0.00 0.00 0.00 86 1015.4
20260906043537 23 45 3.2 14.5 0.00 0.00 0.00 86 1015.3
20260906043046 23 149 4.8 14.5 0.00 0.00 0.00 86 1015.2
20260906042535 23 102 4.8 14.5 0.00 0.00 0.00 86 1015.4
20260906042035 23 98 6.4 16.1 0.00 0.00 0.00 86 1015.5
20260906041535 23 96 8.0 16.1 0.00 0.00 0.00 85 1015.5
20260906041036 23 121 4.8 11.3 0.00 0.00 0.00 85 1015.6
20260906040534 23 94 4.8 17.7 0.00 0.00 0.00 85 1015.6
20260906040037 23 81 6.4 17.7 0.00 0.00 0.00 85 1015.4
20260906035539 23 92 4.8 14.5 0.00 0.00 0.00 84 1015.3
20260906035034 24 94 6.4 14.5 0.00 0.00 0.00 84 1015.5
20260906034538 24 90 1.6 9.7 0.00 0.00 0.00 84 1015.6
20260906034034 24 78 1.6 9.7 0.00 0.00 0.00 84 1015.7
20260906033534 24 89 3.2 12.9 0.00 0.00 0.00 84 1015.8
20260906033033 24 49 3.2 12.9 0.00 0.00 0.00 84 1015.8
20260906032534 24 91 4.8 9.7 0.00 0.00 0.00 84 1015.7
20260906032033 24 98 1.6 9.7 0.00 0.00 0.00 84 1015.7
20260906031539 24 86 3.2 9.7 0.00 0.00 0.00 84 1015.8
20260906031033 24 63 3.2 9.7 0.00 0.00 0.00 84 1015.8
20260906030535 24 93 4.8 9.7 0.00 0.00 0.00 84 1016.0
20260906030033 24 67 1.6 9.7 0.00 0.00 0.00 84 1015.9
20260906025532 24 80 3.2 9.7 0.00 0.00 0.00 84 1015.9
20260906025032 24 95 1.6 6.4 0.00 0.00 0.00 83 1016.0
20260906024531 24 78 1.6 6.4 0.00 0.00 0.00 83 1015.9
20260906024031 24 123 0.0 8.0 0.00 0.00 0.00 83 1015.8
20260906023531 24 90 1.6 8.0 0.00 0.00 0.00 83 1015.6
20260906023031 24 142 3.2 9.7 0.00 0.00 0.00 83 1015.4
20260906022532 24 125 1.6 6.4 0.00 0.00 0.00 83 1015.3
20260906022030 24 123 1.6 6.4 0.00 0.00 0.00 82 1015.3
20260906021530 24 61 1.6 8.0 0.00 0.00 0.00 82 1015.3
20260906021030 25 109 3.2 8.0 0.00 0.00 0.00 81 1015.2
20260906020530 25 125 3.2 9.7 0.00 0.00 0.00 81 1015.1
20260906020030 25 153 3.2 8.0 0.00 0.00 0.00 81 1014.9
20260906015530 25 147 3.2 11.3 0.00 0.00 0.00 80 1014.8
20260906015029 25 85 4.8 12.9 0.00 0.00 0.00 80 1014.7
20260906014530 25 118 4.8 12.9 0.00 0.00 0.00 80 1014.7
20260906014028 25 111 4.8 11.3 0.00 0.00 0.00 79 1014.8
20260906013528 25 119 3.2 11.3 0.00 0.00 0.00 78 1014.8
20260906013042 25 102 4.8 12.9 0.00 0.00 0.00 78 1014.7
20260906012529 25 138 6.4 12.9 0.00 0.00 0.00 78 1014.8
20260906012028 25 89 3.2 9.7 0.00 0.00 0.00 77 1014.7
20260906011528 26 146 3.2 9.7 0.00 0.00 0.00 76 1014.6
20260906011030 26 113 4.8 9.7 0.00 0.00 0.00 76 1014.6
20260906010528 26 115 4.8 11.3 0.00 0.00 0.00 75 1014.6
20260906010030 26 125 3.2 11.3 0.00 0.00 0.00 75 1014.7
20260906005527 26 142 1.6 9.7 0.00 0.00 0.00 74 1014.8
20260906005027 26 101 1.6 9.7 0.00 0.00 0.00 73 1014.9
20260906004527 26 62 1.6 11.3 0.00 0.00 0.00 73 1014.9
20260906004026 26 137 1.6 16.1 0.00 0.00 0.00 72 1014.9
20260906003526 27 159 6.4 16.1 0.00 0.00 0.00 71 1014.7
20260906003027 27 136 6.4 16.1 0.00 0.00 0.00 71 1014.5
20260906002526 27 164 8.0 19.3 0.00 0.00 0.00 71 1014.6
20260906002026 27 143 8.0 19.3 0.00 0.00 0.00 70 1014.6
20260906001527 27 162 6.4 19.3 0.00 0.00 0.00 70 1014.6
20260906001026 27 139 6.4 16.1 0.00 0.00 0.00 69 1014.6
20260906000526 27 167 9.7 17.7 0.00 0.00 0.00 69 1014.6
20260906000026 28 165 6.4 24.1 0.00 0.00 0.00 68 1014.4
20260905235526 28 85 8.0 24.1 0.00 0.00 0.00 68 1014.1
20260905235026 28 141 9.7 22.5 0.00 0.00 0.00 68 1013.9
20260905234524 28 103 6.4 22.5 0.00 0.00 0.00 68 1013.7
20260905234025 28 64 8.0 22.5 0.00 0.00 0.00 67 1013.5
20260905233526 28 113 9.7 22.5 0.00 0.00 0.00 67 1013.5
20260905233026 28 53 9.7 19.3 0.00 0.00 0.00 67 1013.4
20260905232524 28 101 8.0 20.9 0.00 0.00 0.00 67 1013.5
20260905232024 28 115 8.0 20.9 0.00 0.00 0.00 67 1013.4
20260905231528 28 81 9.7 19.3 0.00 0.00 0.00 66 1013.3
20260905231025 28 62 8.0 19.3 0.00 0.00 0.00 66 1013.3
20260905230525 28 50 8.0 22.5 0.00 0.00 0.00 65 1013.3
20260905230026 28 78 11.3 22.5 0.00 0.00 0.00 65 1013.3
20260905225524 28 42 6.4 19.3 0.00 0.00 0.00 64 1013.2
20260905225023 28 93 8.0 19.3 0.00 0.00 0.00 64 1013.2
20260905224523 28 32 8.0 22.5 0.00 0.00 0.00 64 1013.2
20260905224023 29 56 4.8 22.5 0.00 0.00 0.00 63 1013.2
20260905223522 29 88 6.4 22.5 0.00 0.00 0.00 63 1013.1
20260905223022 29 88 8.0 20.9 0.00 0.00 0.00 63 1013.2
20260905222525 29 107 6.4 16.1 0.00 0.00 0.00 66 1013.1
20260905222022 28 115 8.0 22.5 0.00 0.00 0.00 66 1013.1
20260905221520 28 88 8.0 22.5 0.00 0.00 0.00 66 1013.1
20260905221020 28 83 12.9 22.5 0.00 0.00 0.00 66 1013.1
20260905220519 28 76 11.3 22.5 0.00 0.00 0.00 66 1013.2
20260905220018 28 51 11.3 24.1 0.00 0.00 0.00 66 1013.2
20260905215519 28 123 14.5 24.1 0.00 0.00 0.00 66 1013.3
20260905215018 28 91 11.3 22.5 0.00 0.00 0.00 66 1013.3
20260905214517 28 57 11.3 25.7 0.00 0.00 0.00 66 1013.4
20260905214016 28 97 12.9 22.5 0.00 0.00 0.00 66 1013.5
20260905213520 28 86 12.9 22.5 0.00 0.00 0.00 66 1013.5
20260905213018 28 96 12.9 25.7 0.00 0.00 0.00 65 1013.6
20260905212515 28 101 14.5 25.7 0.00 0.00 0.00 66 1013.7
20260905212014 28 150 12.9 25.7 0.00 0.00 0.00 66 1013.7
20260905211516 28 71 12.9 20.9 0.00 0.00 0.00 67 1013.8
20260905211014 28 84 8.0 22.5 0.00 0.00 0.00 67 1013.8
20260905210514 28 82 14.5 24.1 0.00 0.00 0.00 67 1013.9
20260905210017 28 81 9.7 29.0 0.00 0.00 0.00 68 1014.1
20260905205514 28 73 12.9 29.0 0.00 0.00 0.00 67 1014.0
20260905205015 28 61 11.3 24.1 0.00 0.00 0.00 67 1014.0
20260905204512 27 88 9.7 25.7 0.00 0.00 0.00 67 1014.0
20260905204013 28 83 14.5 29.0 0.00 0.00 0.00 67 1014.2
20260905203512 28 56 16.1 29.0 0.00 0.00 0.00 66 1014.3
20260905203012 28 74 14.5 20.9 0.00 0.00 0.00 67 1014.3
20260905202511 27 63 11.3 29.0 0.00 0.00 0.00 68 1014.3
20260905202013 27 157 16.1 30.6 0.00 0.00 0.00 69 1014.4
20260905201512 27 100 17.7 30.6 0.00 0.00 0.00 69 1014.7